Tracking 19817 objects as of 19-Aug-2019
HD Live streaming from Space Station
objects crossing your sky now

COSMOS 2251 DEB

Track COSMOS 2251 DEB now!
10-day predictions


NORAD ID: 34054
Int'l Code: 1993-036JR
Perigee: 687.8 km
Apogee: 733.4 km
Inclination: 74.0 °
Period: 98.8 minutes
Semi major axis: 7081 km
RCS: 0.028 m2 (small)
Launch date: June 16, 1993
Source: Commonwealth of Independent States (former USSR) (CIS)
Launch site: PLESETSK MISSILE AND SPACE COMPLEX (PKMTR)

Note: This is SATELLITE DEBRIS
aabbcc
Your satellite tracking list
Your tracking list is empty




NASA's NSSDC Master Catalog

Two Line Element Set (TLE):
1 34054U 93036JR  19230.84724605 +.00000482 +00000-0 +11354-3 0  9999
2 34054 074.0379 022.8114 0032192 345.5884 071.9475 14.56833765555826
Source of the keplerian elements: AFSPC